Weather History for Crestview, FL

Change the Weather History Date:

Monday, May 7, 2012

  Actual Average Record
Temperature  
Mean Temperature 74 °F -  
Max Temperature 90 °F 81 °F 92 °F (1949)
Min Temperature 60 °F 56 °F 44 °F (1989)
Cooling Degree Days 9    
Growing Degree Days 24 (Base 50)    
Moisture  
Dew Point 63 °F    
Average Humidity 82    
Maximum Humidity 94    
Minimum Humidity 43    
Precipitation  
Precipitation 0.00 in - - ()
Sea Level Pressure  
Sea Level Pressure 29.92 in    
Wind  
Wind Speed 1 mph (ESE)    
Max Wind Speed 7 mph    
Max Gust Speed -    
Visibility 5 miles    
Events Fog    
Averages and records for this station are not official NWS values.
T = Trace of Precipitation, MM = Missing Value Source: NWS Daily Summary

Daily Weather History Graph

Daily Weather History Graph

Search for Another Location

Airport:

Trip Planner

Search our weather history database for the weather conditions in past years. The results will help you decide how hot, cold, wet, or windy it might be!

Date:

Astronomy

May. 07, 2012 Rise Set
Actual Time 5:56 AM CDT 7:29 PM CDT
Civil Twilight 5:30 AM CDT 7:55 PM CDT
Nautical Twilight 4:59 AM CDT 8:26 PM CDT
Astronomical Twilight 4:26 AM CDT 8:58 PM CDT
Moon 9:34 PM CDT (5/7) 7:07 AM CDT (5/7)
Length of Visible Light 14h 24m
Length of Day
13h 32m
Waning Gibbous, 96% of the Moon is Illuminated
May 7
Waning Gibbous
May 12
Last Quarter
May 20
New
May 28
First Quarter
Jun 4
Full

Hourly Weather History & Observations

Time (CDT) Temp. Heat Index Dew Point Humidity Pressure Visibility Wind Dir Wind Speed Gust Speed Precip Events Conditions
12:00 AM 64.4 °F - 62.6 °F 94% 29.95 in 1.0 mi Calm Calm - N/A   Mist
12:20 AM 64.4 °F - 62.6 °F 94% 29.95 in 0.8 mi Calm Calm - N/A   Mist
12:23 AM 64.4 °F - 62.6 °F 94% 29.95 in 1.2 mi NE 3.5 mph - N/A   Partly Cloudy
12:27 AM 64.4 °F - 62.6 °F 94% 29.95 in 3.0 mi NE 3.5 mph - N/A   Partly Cloudy
12:53 AM 64.9 °F - 62.1 °F 90% 29.94 in 5.0 mi Calm Calm - N/A   Clear
1:08 AM 64.4 °F - 62.6 °F 94% 29.94 in 1.8 mi Calm Calm - N/A   Clear
1:17 AM 64.4 °F - 62.6 °F 94% 29.94 in 3.0 mi Calm Calm - N/A   Clear
1:53 AM 63.0 °F - 61.0 °F 93% 29.93 in 4.0 mi Calm Calm - N/A   Clear
2:07 AM 64.4 °F - 62.6 °F 94% 29.93 in 1.5 mi Calm Calm - N/A   Clear
2:10 AM 62.6 °F - 60.8 °F 94% 29.93 in 0.5 mi Calm Calm - N/A Fog Fog
2:21 AM 62.6 °F - 60.8 °F 94% 29.92 in 1.0 mi Calm Calm - N/A   Clear
2:31 AM 62.6 °F - 60.8 °F 94% 29.92 in 3.0 mi Calm Calm - N/A   Clear
2:53 AM 62.1 °F - 60.1 °F 93% 29.92 in 4.0 mi Calm Calm - N/A   Clear
3:14 AM 62.6 °F - 60.8 °F 94% 29.92 in 1.5 mi Calm Calm - N/A   Clear
3:24 AM 62.6 °F - 60.8 °F 94% 29.92 in 0.8 mi Calm Calm - N/A   Clear
3:31 AM 62.6 °F - 60.8 °F 94% 29.92 in 1.0 mi Calm Calm - N/A   Clear
3:36 AM 60.8 °F - 59.0 °F 94% 29.92 in 3.0 mi Calm Calm - N/A   Clear
3:53 AM 61.0 °F - 59.0 °F 93% 29.91 in 2.5 mi Calm Calm - N/A   Clear
4:03 AM 62.6 °F - 59.0 °F 88% 29.92 in 6.0 mi Calm Calm - N/A   Clear
4:53 AM 61.0 °F - 59.0 °F 93% 29.92 in 4.0 mi NE 3.5 mph - N/A   Clear
5:35 AM 62.6 °F - 60.8 °F 94% 29.93 in 1.5 mi Calm Calm - N/A   Clear
5:53 AM 61.0 °F - 59.0 °F 93% 29.93 in 0.8 mi Calm Calm - N/A   Clear
6:02 AM 60.8 °F - 59.0 °F 94% 29.94 in 1.0 mi Calm Calm - N/A   Clear
6:09 AM 62.6 °F - 59.0 °F 88% 29.94 in 3.0 mi Calm Calm - N/A   Clear
6:13 AM 62.6 °F - 59.0 °F 88% 29.95 in 1.5 mi Calm Calm - N/A   Clear
6:22 AM 62.6 °F - 60.8 °F 94% 29.95 in 0.8 mi Calm Calm - N/A   Clear
6:26 AM 62.6 °F - 60.8 °F 94% 29.95 in 2.0 mi Calm Calm - N/A   Clear
6:41 AM 62.6 °F - 60.8 °F 94% 29.94 in 4.0 mi Calm Calm - N/A   Clear
6:53 AM 64.0 °F - 62.1 °F 93% 29.94 in 4.0 mi Calm Calm - N/A   Clear
7:53 AM 69.1 °F - 64.0 °F 84% 29.95 in 10.0 mi Calm Calm - N/A   Clear
8:53 AM 73.9 °F - 66.9 °F 79% 29.96 in 10.0 mi Calm Calm - N/A   Clear
9:53 AM 78.1 °F - 66.9 °F 68% 29.95 in 10.0 mi East 4.6 mph - N/A   Clear
10:53 AM 80.1 °F 81.9 °F 64.9 °F 60% 29.96 in 10.0 mi Calm Calm - N/A   Clear
11:53 AM 84.0 °F 85.8 °F 64.9 °F 53% 29.96 in 10.0 mi Variable 5.8 mph - N/A   Clear
12:53 PM 86.0 °F 86.8 °F 63.0 °F 46% 29.95 in 10.0 mi Calm Calm - N/A   Clear
1:53 PM 87.1 °F 88.9 °F 64.9 °F 48% 29.93 in 10.0 mi East 3.5 mph - N/A   Partly Cloudy
2:53 PM 86.0 °F 87.3 °F 64.0 °F 48% 29.90 in 10.0 mi Calm Calm - N/A   Mostly Cloudy
3:53 PM 88.0 °F 88.7 °F 63.0 °F 43% 29.86 in 10.0 mi Variable 3.5 mph - N/A   Mostly Cloudy
4:53 PM 86.0 °F 86.3 °F 62.1 °F 44% 29.86 in 10.0 mi Calm Calm - N/A   Partly Cloudy
5:53 PM 86.0 °F 89.4 °F 68.0 °F 55% 29.86 in 10.0 mi Calm Calm - N/A   Clear
6:53 PM 82.9 °F 86.5 °F 69.1 °F 63% 29.86 in 10.0 mi South 3.5 mph - N/A   Mostly Cloudy
7:53 PM 80.1 °F 82.7 °F 68.0 °F 67% 29.87 in 10.0 mi WSW 6.9 mph - N/A   Partly Cloudy
8:53 PM 75.9 °F - 68.0 °F 76% 29.89 in 10.0 mi WSW 3.5 mph - N/A   Clear
9:53 PM 75.0 °F - 68.0 °F 79% 29.90 in 10.0 mi SSW 4.6 mph - N/A   Clear
10:53 PM 71.1 °F - 68.0 °F 90% 29.89 in 9.0 mi Calm Calm - N/A   Clear
11:53 PM 71.1 °F - 66.9 °F 87% 29.89 in 10.0 mi Calm Calm - N/A   Clear